Flag for Canada Weather past 2 weeks in Camrose, Alberta, Canada

Now
70 °F

Broken clouds.


Feels Like: 70 °F
Forecast: 60 / 79 °F
Wind: 12 mph from Southeast

Location: Edmonton International

Current Time: Jul 22, 2014 at 9:20:31 PM

Latest Report: Jul 22, 2014 at 9:00 PM


Visibility: 15 mi

Pressure: 30.07 "Hg

Humidity: 64%

Dew point: 57 °F

Location of CamroseLocation

Historic Weather in Camrose — Graph

°F

Camrose temperature yesterday

Maximum temperature yesterday: 72 °F (at 5:00 PM)
Minimum temperature yesterday: 39 °F (at 6:00 AM)
Average temperature yesterday: 58 °F

Past Weeks' High & Low Weather Summary

 TemperatureHumidityPressure
High82 °F (Jul 12, 5:00 PM)100% (Jul 11, 6:00 AM)30.28 "Hg (Jul 11, 6:00 AM)
Low39 °F (Jul 21, 6:00 AM)31% (Jul 11, 6:00 PM)29.56 "Hg (Jul 19, 3:00 AM)
Average63 °F74%29.94 "Hg
* Reported Jul 7 8:00 PM — Jul 22 8:00 PM, Camrose, Weather by CustomWeather, © 2014

Note: Actual official high and low records may vary slightly from our data, if they occured in-between our weather recording intervals... More about our weather records

Advertising

Camrose weather history for previous 24 hours

 ConditionsComfort  
Time TempWeatherWind HumidityBarometerVisibility
8:00 PM
Jul 22
72 °FBroken clouds.13 mph61%30.08 "Hg15 mi
7:00 PM73 °FBroken clouds.16 mph57%30.10 "Hg15 mi
6:00 PM77 °FBroken clouds.15 mph51%30.11 "Hg15 mi
10:00 AM68 °FPassing clouds.12 mph64%30.15 "Hg15 mi
9:00 AM64 °FPassing clouds.10 mph73%30.14 "Hg15 mi
8:00 AM59 °FPassing clouds.7 mph88%30.13 "Hg15 mi
7:00 AM52 °FPassing clouds.6 mph100%30.14 "Hg15 mi
6:00 AM46 °FPassing clouds.3 mph93%30.14 "Hg12 mi
5:00 AM45 °FPassing clouds.5 mph93%30.13 "Hg15 mi
4:00 AM45 °FClear.5 mph100%30.13 "Hg15 mi
3:00 AM48 °FPassing clouds.2 mph94%30.11 "Hg15 mi
2:00 AM48 °FPassing clouds.2 mph94%30.11 "Hg15 mi
1:00 AM50 °FPassing clouds.5 mph88%30.09 "Hg15 mi
12:00 AM50 °FPassing clouds.5 mph94%30.08 "Hg15 mi
11:00 PM
Jul 21
54 °FPassing clouds.5 mph82%30.06 "Hg15 mi
10:00 PM59 °FPassing clouds.5 mph77%30.04 "Hg15 mi
9:00 PM64 °FPassing clouds.6 mph64%30.02 "Hg15 mi
Weather by CustomWeather, © 2014

See weather overviewHow to use our weather pages